[[{"header":{"parameterUnit":"m.s-1","parameterCategory":1,"la1":30.2991,"la2":30.254,"lo1":-89.0895,"lo2":-89.0444,"dy":0.0017,"dx":0.0017,"nx":28,"ny":28,"refTime":"2024-05-02T03:00:00:Z","depth":0,"parameterNumber":2,"parameterNumberName":"U-component_of_WINDS"},"data":[0,0,0,0,0,0,0,0,0,0,0,0,0,0,0,0,0,0,0,0,0,0,0,0,0,0,0,0,0,0,0,0,0,0,0,0,0,0,0,0,0,0,0,0,0,0,0,0,0,0,0,0,0,0,0,0,0,0,-1.9488,-1.9487,0,-1.9469,-1.9469,-1.9469,-1.9416,-1.9415,-1.9414,-1.9413,-1.9395,-1.9395,-1.9396,0,0,0,0,0,0,0,0,0,0,0,0,0,-1.9479,-1.9479,-1.9488,-1.9487,-1.9487,-1.9469,-1.9469,-1.9469,-1.9417,-1.9415,-1.9414,-1.9412,-1.9394,-1.9395,-1.9396,0,0,0,0,0,0,0,0,0,0,0,0,0,-1.9474,-1.948,-1.9488,-1.9459,-1.9456,-1.9469,-1.9469,-1.9469,-1.9417,-1.9415,-1.9413,-1.9412,-1.9394,-1.9395,-1.9396,-1.9436,0,0,-1.9399,-1.9399,0,0,0,0,0,0,0,0,-1.9474,-1.9474,-1.9463,-1.9461,-1.9458,-1.9443,-1.9459,-1.9458,-1.9417,-1.9432,-1.9413,-1.9411,-1.9412,-1.9412,-1.9412,-1.9435,-1.9434,-1.9399,-1.9399,-1.94,-1.94,0,0,0,0,0,0,0,-1.9475,-1.9475,-1.948,-1.9463,-1.946,-1.9447,-1.9445,-1.9459,-1.9432,-1.943,-1.9426,-1.9425,-1.941,-1.9411,-1.9411,-1.9434,-1.9399,-1.9399,-1.94,-1.94,-1.949,-1.9491,0,0,0,0,0,0,-1.9479,-1.9475,-1.9481,-1.948,-1.9462,-1.9449,-1.9446,-1.945,-1.9432,-1.9427,-1.9427,-1.9423,-1.9411,-1.941,-1.941,-1.9455,-1.94,-1.94,-1.9401,-1.9488,-1.949,-1.9492,0,0,0,0,0,0,-1.9479,-1.948,-1.9482,-1.9477,-1.9476,-1.9451,-1.9456,-1.945,-1.9451,-1.9429,-1.9424,-1.9432,-1.9409,-1.9409,-1.943,-1.9454,-1.9401,-1.9402,-1.9486,-1.9488,-1.9491,-1.9547,0,0,0,0,0,0,-1.9479,-1.948,-1.9495,-1.9477,-1.9476,-1.9501,-1.9457,-1.9451,-1.9452,-1.9447,-1.9433,-1.9428,-1.9408,-1.9429,-1.9431,-1.9454,-1.9402,-1.9483,-1.9487,-1.949,-1.9543,-1.9551,-1.9558,0,0,0,0,0,-1.9479,-1.9511,-1.9496,-1.9497,-1.9494,-1.9503,-1.9502,-1.9478,-1.9455,-1.9469,-1.9455,-1.9429,-1.9452,-1.9432,-1.9433,-1.9457,-1.9481,-1.9486,-1.949,-1.9539,-1.9549,-1.9558,0,0,0,0,0,0,-1.9531,-1.9508,-1.9491,-1.9518,-1.9513,-1.9494,-1.9511,-1.9489,-1.949,-1.9485,-1.9455,-1.9452,-1.9478,-1.947,-1.9448,-1.9496,-1.9462,-1.9467,-1.9499,-1.9509,-1.9517,-1.9517,-1.9403,0,0,0,0,0,-1.9546,-1.9555,-1.9535,-1.9561,-1.9559,-1.9536,-1.9539,-1.9521,-1.9514,-1.9511,-1.9499,-1.9494,-1.95,-1.9504,-1.9508,-1.9542,-1.9538,-1.956,-1.9568,-1.9574,-1.9578,-1.9596,-1.9605,-1.9506,-1.9506,-1.9505,0,0,-1.9577,-1.9565,-1.9572,-1.9571,-1.9565,-1.9575,-1.9534,-1.9547,-1.9554,-1.9513,-1.9532,-1.9523,-1.9516,-1.9543,-1.9555,-1.9537,-1.9605,-1.958,-1.9585,-1.9585,-1.9601,-1.961,-1.9619,-1.9508,-1.9508,-1.9507,0,0,-1.9637,-1.963,-1.965,-1.9646,-1.9637,-1.9621,-1.9627,-1.9612,-1.9604,-1.9623,-1.9592,-1.9602,-1.9613,-1.9608,-1.9608,-1.967,-1.9645,-1.9672,-1.9712,-1.973,-1.9738,-1.9744,-1.9766,-1.9774,-1.9676,-1.9677,-1.9677,0,-1.9676,-1.969,-1.9664,-1.9679,-1.9679,-1.9644,-1.9665,-1.9662,-1.9655,-1.9656,-1.9638,-1.9651,-1.9644,-1.967,-1.9685,-1.9686,-1.9691,-1.9672,-1.9739,-1.9745,-1.9751,-1.9771,-1.978,-1.968,-1.9679,-1.9679,-1.9679,0,-1.9738,-1.9749,-1.9767,-1.9761,-1.9764,-1.9782,-1.976,-1.9766,-1.9749,-1.9736,-1.9756,-1.9746,-1.9748,-1.9753,-1.9736,-1.9777,-1.9767,-1.9744,-1.971,-1.9764,-1.9783,-1.979,-1.9684,-1.9683,-1.9682,-1.9681,0,0,-1.9828,-1.981,-1.9817,-1.9815,-1.9804,-1.9811,-1.9829,-1.9831,-1.9837,-1.9834,-1.9848,-1.9859,-1.9838,-1.9838,-1.982,-1.9836,-1.9885,-1.9811,-1.981,-1.9824,-1.993,-1.9947,-1.9956,-1.987,-1.9872,-1.9873,-1.9931,0,-1.9885,-1.9912,-1.9891,-1.9922,-1.9932,-1.99,-1.9915,-1.991,-1.9899,-1.9906,-1.9894,-1.9903,-1.9875,-1.9874,-1.9889,-1.9876,-1.9906,-1.9872,-1.9882,-1.9883,-1.9883,-1.9966,-1.9982,-2.0037,-1.9938,-1.9939,-1.994,0,-1.9954,-1.9955,-1.9987,-1.9975,-1.9978,-1.9992,-1.9993,-2.0,-1.9995,-1.9986,-1.9987,-1.9965,-1.9982,-1.995,-1.9973,-1.9951,-1.9954,-1.9949,-1.9951,-1.9949,-1.9913,-1.9965,-2.0054,-2.0062,-1.9951,-1.995,-1.9949,0,-2.0016,-2.0025,-2.0046,-2.0045,-2.0032,-2.0042,-2.0037,-2.003,-2.0033,-2.0034,-2.0036,-2.004,-2.0041,-2.0045,-2.0025,-2.0004,-2.0051,-2.0017,-2.0044,-2.0044,-2.0053,-2.0053,-2.0143,-2.0058,-2.0058,-2.0058,-2.0058,0,-2.008,-2.0101,-2.0074,-2.0086,-2.0109,-2.0085,-2.0109,-2.0101,-2.0095,-2.0106,-2.0079,-2.009,-2.0065,-2.0073,-2.0059,-2.008,-2.0081,-2.0074,-2.007,-2.0076,-2.0077,-2.0076,-2.0072,-2.006,-2.006,-2.0059,-2.0059,0,-2.0152,-2.0135,-2.0155,-2.0141,-2.0138,-2.0156,-2.0144,-2.0156,-2.0144,-2.0159,-2.0161,-2.0142,-2.0151,-2.0133,-2.0139,-2.0129,-2.0159,-2.0149,-2.0161,-2.0157,-2.0185,-2.0182,-2.0277,-2.0288,-2.0197,-2.0198,-2.0199,0,-2.0193,-2.0209,-2.0197,-2.0203,-2.0199,-2.0208,-2.0212,-2.0189,-2.0194,-2.019,-2.0202,-2.0209,-2.0213,-2.0229,-2.0217,-2.0222,-2.0211,-2.0244,-2.0212,-2.0218,-2.0211,-2.0209,-2.0211,-2.025,-2.0251,-2.0252,-2.0253,0,-2.0269,-2.026,-2.0265,-2.0268,-2.0273,-2.0274,-2.0274,-2.028,-2.0257,-2.0263,-2.0272,-2.0276,-2.0283,-2.029,-2.0292,-2.0288,-2.0267,-2.0264,-2.027,-2.0275,-2.0281,-2.0278,-2.0178,-2.0261,-2.026,-2.026,-2.0259,-2.0259,-2.0326,-2.0338,-2.0332,-2.034,-2.0337,-2.0338,-2.0348,-2.0338,-2.0345,-2.0349,-2.0336,-2.0348,-2.0344,-2.0345,-2.0343,-2.0353,-2.0338,-2.0347,-2.0349,-2.0351,-2.0355,-2.0281,-2.0353,-2.0353,-2.0353,-2.0353,-2.0352,0,-2.0399,-2.0394,-2.0401,-2.0402,-2.0408,-2.0388,-2.0387,-2.0394,-2.0405,-2.0403,-2.0407,-2.0418,-2.0426,-2.0415,-2.042,-2.043,-2.0421,-2.0432,-2.043,-2.043,-2.0369,-2.0362,-2.044,-2.044,-2.044,-2.044,-2.044,-2.044,-2.0438,-2.0458,-2.0449,-2.0468,-2.0463,-2.0474,-2.0475,-2.0476,-2.0474,-2.0487,-2.0493,-2.0486,-2.0481,-2.0486,-2.0492,-2.0489,-2.0492,-2.0507,-2.05,-2.0443,-2.0434,-2.0426,-2.042,-2.0508,-2.0508,-2.056,-2.0561,-2.0561]},{"header":{"parameterUnit":"m.s-1","parameterCategory":1,"la1":30.2991,"la2":30.254,"lo1":-89.0895,"lo2":-89.0444,"dy":0.0017,"dx":0.0017,"nx":28,"ny":28,"refTime":"2024-05-02T03:00:00:Z","depth":0,"parameterNumber":3,"parameterNumberName":"V-component_of_WINDS"},"data":[0,0,0,0,0,0,0,0,0,0,0,0,0,0,0,0,0,0,0,0,0,0,0,0,0,0,0,0,0,0,0,0,0,0,0,0,0,0,0,0,0,0,0,0,0,0,0,0,0,0,0,0,0,0,0,0,0,0,0.8909,0.891,0,0.8971,0.8972,0.8972,0.902,0.9021,0.9021,0.9021,0.9082,0.9083,0.9084,0,0,0,0,0,0,0,0,0,0,0,0,0,0.883,0.8831,0.8909,0.891,0.891,0.8971,0.8972,0.8972,0.902,0.9021,0.9021,0.9022,0.9082,0.9083,0.9084,0,0,0,0,0,0,0,0,0,0,0,0,0,0.8875,0.8832,0.8909,0.8942,0.8945,0.8971,0.8972,0.8973,0.902,0.9021,0.9021,0.9022,0.9081,0.9083,0.9085,0.9082,0,0,0.909,0.9091,0,0,0,0,0,0,0,0,0.8873,0.8878,0.8936,0.8939,0.8943,0.8989,0.8966,0.9009,0.902,0.8991,0.9021,0.9022,0.905,0.9055,0.9065,0.9085,0.9087,0.909,0.9091,0.9092,0.9093,0,0,0,0,0,0,0,0.887,0.8876,0.8933,0.8937,0.8941,0.8953,0.896,0.8974,0.9016,0.8994,0.8998,0.9004,0.9052,0.9063,0.9066,0.9088,0.909,0.9092,0.9093,0.9094,0.911,0.9109,0,0,0,0,0,0,0.8862,0.8873,0.8931,0.8935,0.8909,0.8953,0.8962,0.8973,0.9016,0.9023,0.9004,0.9006,0.9059,0.9064,0.9069,0.9069,0.9092,0.9094,0.9095,0.911,0.911,0.9109,0,0,0,0,0,0,0.886,0.8866,0.8929,0.8905,0.8914,0.8954,0.8967,0.8974,0.8985,0.9024,0.9031,0.9007,0.906,0.9066,0.9079,0.9072,0.9095,0.9096,0.9111,0.911,0.9109,0.9069,0,0,0,0,0,0,0.8857,0.8865,0.8865,0.8905,0.8915,0.8938,0.8966,0.8975,0.8988,0.8992,0.9028,0.9035,0.9061,0.9076,0.908,0.9075,0.9098,0.9112,0.9111,0.911,0.9071,0.9067,0.9063,0,0,0,0,0,0.8854,0.885,0.8865,0.8872,0.8916,0.8938,0.8944,0.8974,0.8987,0.8987,0.9012,0.9034,0.9072,0.9077,0.9082,0.9077,0.9113,0.9111,0.911,0.9073,0.9067,0.9063,0,0,0,0,0,0,0.8808,0.8856,0.8873,0.8882,0.8905,0.8946,0.8946,0.8968,0.8987,0.899,0.9027,0.9035,0.9043,0.9061,0.9066,0.9077,0.9095,0.9095,0.9065,0.906,0.9056,0.9052,0.9099,0,0,0,0,0,0.8798,0.8813,0.8854,0.8858,0.8869,0.8906,0.8916,0.8938,0.8964,0.8974,0.9,0.9023,0.9041,0.9051,0.9069,0.9074,0.9083,0.9073,0.9069,0.9065,0.9065,0.9069,0.9066,0.9104,0.9104,0.9104,0,0,0.8779,0.8808,0.8814,0.885,0.8871,0.8885,0.8914,0.8927,0.8938,0.8976,0.899,0.901,0.9038,0.9047,0.9052,0.9062,0.9056,0.9063,0.906,0.9062,0.9067,0.9064,0.906,0.9103,0.9104,0.9104,0,0,0.8752,0.8775,0.8781,0.8802,0.8834,0.8858,0.886,0.8897,0.8912,0.8927,0.8956,0.8969,0.8998,0.9018,0.9031,0.9012,0.9034,0.9017,0.8996,0.9,0.8997,0.8995,0.8989,0.8986,0.9016,0.9016,0.9016,0,0.8724,0.8747,0.8781,0.8794,0.8808,0.8845,0.8851,0.8869,0.8905,0.8914,0.8925,0.8963,0.8985,0.8999,0.8994,0.9004,0.9007,0.9013,0.8995,0.8993,0.8991,0.8986,0.8983,0.9014,0.9014,0.9015,0.9015,0,0.8712,0.8727,0.8729,0.8764,0.8778,0.8787,0.8823,0.8833,0.8854,0.8877,0.8892,0.8919,0.8944,0.8949,0.8969,0.8966,0.8972,0.8988,0.9007,0.8985,0.898,0.8978,0.9011,0.9012,0.9012,0.9013,0,0,0.8657,0.8711,0.8711,0.8728,0.8766,0.8779,0.8789,0.8815,0.8824,0.8847,0.8857,0.8881,0.8897,0.8913,0.8935,0.8938,0.8923,0.8955,0.8956,0.8949,0.8923,0.8911,0.8908,0.8937,0.8937,0.8937,0.8921,0,0.8636,0.8659,0.869,0.8702,0.8717,0.8752,0.8762,0.8786,0.8808,0.8823,0.8847,0.8864,0.8884,0.8894,0.8898,0.8924,0.8918,0.8925,0.8947,0.8947,0.8939,0.8906,0.8892,0.8876,0.8919,0.8919,0.8919,0,0.8615,0.8638,0.8652,0.869,0.8698,0.8706,0.8732,0.8746,0.8775,0.879,0.8808,0.8833,0.8846,0.8863,0.8882,0.8886,0.8896,0.891,0.891,0.8914,0.8932,0.8909,0.8872,0.8869,0.8916,0.8917,0.8917,0,0.8574,0.8609,0.8622,0.8635,0.8679,0.8685,0.8703,0.8732,0.8746,0.8768,0.8778,0.8801,0.8814,0.8831,0.8861,0.887,0.8877,0.8896,0.889,0.8889,0.889,0.889,0.8855,0.8896,0.8896,0.8896,0.8896,0,0.8549,0.8556,0.8604,0.8612,0.8622,0.8657,0.8665,0.8687,0.8713,0.8725,0.8756,0.8767,0.8806,0.8822,0.8845,0.8858,0.8863,0.8876,0.8882,0.8874,0.8872,0.8882,0.8884,0.8895,0.8895,0.8895,0.8896,0,0.8505,0.8538,0.8555,0.8596,0.8606,0.8611,0.8646,0.8655,0.868,0.8695,0.8701,0.8738,0.8758,0.879,0.8819,0.8835,0.8843,0.8853,0.8834,0.8838,0.8831,0.8831,0.8801,0.88,0.884,0.884,0.884,0,0.8487,0.8493,0.8536,0.8547,0.8565,0.8582,0.8597,0.8632,0.8646,0.8679,0.8684,0.8707,0.8727,0.8757,0.8787,0.8809,0.882,0.8808,0.8824,0.8815,0.8821,0.8821,0.8822,0.8805,0.8804,0.8804,0.8803,0,0.8451,0.8467,0.8487,0.8513,0.853,0.8552,0.8575,0.8582,0.8623,0.8636,0.8658,0.8673,0.8704,0.8726,0.8753,0.8772,0.8794,0.8798,0.8798,0.879,0.8779,0.8785,0.8825,0.8799,0.8799,0.8799,0.88,0.88,0.842,0.8428,0.846,0.8481,0.8503,0.8524,0.8535,0.8561,0.858,0.8608,0.8628,0.8648,0.8677,0.8715,0.8733,0.8749,0.8759,0.8759,0.8759,0.8758,0.8755,0.8776,0.8754,0.8754,0.8754,0.8754,0.8754,0,0.8387,0.8409,0.8429,0.8461,0.8478,0.8499,0.8526,0.8538,0.8556,0.8582,0.8601,0.8626,0.8648,0.868,0.8704,0.8711,0.8722,0.8716,0.8716,0.872,0.8745,0.8743,0.8707,0.8707,0.8707,0.8707,0.8707,0.8707,0.8372,0.8387,0.8407,0.8433,0.8455,0.8476,0.849,0.851,0.853,0.8557,0.8576,0.8597,0.8625,0.8651,0.8672,0.8681,0.8689,0.868,0.8692,0.8714,0.8718,0.8723,0.8721,0.8681,0.8681,0.8666,0.8666,0.8666]}]]